{"data":{"norad_id":68624,"epoch":"2026-05-25T04:00:03.998880Z","epoch_age_seconds":63793,"freshness":"FRESH","line1":"1 68624U 26073Y   26145.16671295 -.02085347  00000+0 -35562-1 0  9991","line2":"2 68624  97.2846 344.6235 0001695  96.6126 135.6369 15.54534567  5881","mean_motion":15.54534567,"eccentricity":0.0001695,"inclination_deg":97.2846,"raan_deg":344.6235,"arg_perigee_deg":96.6126,"mean_anomaly_deg":135.6369,"bstar":-0.035562,"rev_number":588,"period_min":92.632227714239,"perigee_km":402.35643473839,"apogee_km":404.65541168936,"semimajor_km":6781.6429232139,"source":"CELESTRAK","updated_at":"2026-05-25T13:38:21.990076Z"}}